UOSAT-12 - Orbit

View from above orbital plane
View from above orbital plane
View from above satellite
View from above satellite

Ground track
Ground track

The orbit data is extracted from the following two-line orbital elements,

1 25693U 99021A   13169.80904264  .00000309  00000-0  40945-4 0  1775
2 25693 064.5581 300.3739 0017555 330.3592 029.7010 14.79522286764157
Epoch (UTC): 18 June 2013 19:25:01
Eccentricity: 0.0017555
inclination: 64.5581°
perigee height: 618 km
apogee height: 643 km
right ascension of ascending node: 300.3739°
argument of perigee: 330.3592°
revolutions per day: 14.79522286
mean anomaly at epoch: 29.7010°
orbit number at epoch: 76415

The dashed part of the orbit path shows where the satellite is in the earth's shadow,  

Developed and maintained by Chris Peat, Heavens-Above GmbH. Please read the updated FAQ before sending e-mail. Imprint. DLR